Weather History for KRHP - August, 2013

Change the Weather History Date:

Thursday, August 8, 2013

  Actual Average (KTYS) Record (KTYS)
Temperature  
Mean Temperature 74 °F 78 °F  
Max Temperature 81 °F 88 °F 101 °F (1930)
Min Temperature 68 °F 69 °F 53 °F (1989)
Degree Days  
Heating Degree Days 0 0  
Month to date heating degree days 0  
Since 1 June heating degree days 4  
Since 1 July heating degree days 0  
Cooling Degree Days 10 13  
Month to date cooling degree days 104  
Year to date cooling degree days 988  
Since 1 June cooling degree days 826  
Growing Degree Days 24 (Base 50)    
Moisture  
Dew Point 70 °F    
Average Humidity 90    
Maximum Humidity 100    
Minimum Humidity 70    
Precipitation  
Precipitation 0.00 in 0.13 in 1.21 in (1977)
Month to date precipitation 1.00  
Year to date precipitation 31.33  
Snow  
Snow 0.00 in 0.00 in - ()
Month to date snowfall 0.0  
Since 1 June snowfall 0.0  
Since 1 July snowfall 0.0  
Snow Depth -    
Sea Level Pressure  
Sea Level Pressure 30.09 in    
Wind  
Wind Speed 1 mph (West)    
Max Wind Speed 9 mph    
Max Gust Speed -    
Visibility 8 miles    
Events Rain    
T = Trace of Precipitation, MM = Missing Value Source: NWS Daily Summary

Daily Weather History Graph

Daily Weather History Graph

Search for Another Location

Airport or City:

Trip Planner

Search our weather history database for the weather conditions in past years. The results will help you decide how hot, cold, wet, or windy it might be!

Date:

Astronomy

Aug. 08, 2013 Rise Set
Actual Time 6:50 AM EDT 8:31 PM EDT
Civil Twilight 6:22 AM EDT 8:58 PM EDT
Nautical Twilight 5:49 AM EDT 9:31 PM EDT
Astronomical Twilight 5:14 AM EDT 10:06 PM EDT
Moon 8:29 AM EDT (8/8) 9:17 PM EDT (8/8)
Length of Visible Light 14h 36m
Length of Day
13h 41m
Waxing Crescent, 3% of the Moon is Illuminated
Aug 8
Waxing Crescent
Aug 14
First Quarter
Aug 20
Full
Aug 28
Last Quarter
Sep 5
New

Hourly Weather History & Observations

Time (EDT) Temp. Heat Index Dew Point Humidity Pressure Visibility Wind Dir Wind Speed Gust Speed Precip Events Conditions
12:15 AM 71.2 °F - 70.7 °F 98% 30.10 in 10.0 mi Calm Calm - N/A   Overcast
12:35 AM 71.4 °F - 70.7 °F 98% 30.09 in 10.0 mi Calm Calm - N/A   Overcast
12:55 AM 71.2 °F - 70.5 °F 98% 30.09 in 10.0 mi Calm Calm - N/A   Overcast
1:15 AM 71.1 °F - 70.7 °F 99% 30.09 in 7.0 mi Calm Calm - N/A   Light Drizzle
1:35 AM 70.9 °F - 70.7 °F 99% 30.09 in 7.0 mi Calm Calm - N/A   Overcast
1:55 AM 70.9 °F - 70.3 °F 98% 30.09 in 7.0 mi Calm Calm - N/A   Overcast
2:15 AM 70.7 °F - 70.3 °F 99% 30.08 in 7.0 mi Calm Calm - N/A   Overcast
2:35 AM 70.3 °F - 70.0 °F 99% 30.08 in 7.0 mi Calm Calm - N/A   Overcast
2:55 AM 70.2 °F - 69.8 °F 99% 30.08 in 7.0 mi Calm Calm - N/A   Overcast
3:15 AM 70.3 °F - 70.0 °F 99% 30.08 in 5.0 mi Calm Calm - N/A   Overcast
3:35 AM 69.8 °F - 69.6 °F 99% 30.08 in 7.0 mi Calm Calm - N/A   Mostly Cloudy
3:55 AM 69.8 °F - 69.1 °F 98% 30.07 in 7.0 mi Calm Calm - N/A   Mostly Cloudy
4:15 AM 69.6 °F - 69.1 °F 98% 30.07 in 7.0 mi Calm Calm - N/A   Overcast
4:35 AM 69.3 °F - 68.9 °F 99% 30.07 in 7.0 mi Calm Calm - N/A   Overcast
4:55 AM 68.9 °F - 68.5 °F 99% 30.07 in 5.0 mi Calm Calm - N/A   Mostly Cloudy
5:15 AM 68.2 °F - 67.8 °F 99% 30.06 in 7.0 mi Calm Calm - N/A   Scattered Clouds
5:35 AM 68.0 °F - 67.6 °F 99% 30.06 in 7.0 mi Calm Calm - N/A   Mostly Cloudy
5:55 AM 68.4 °F - 68.0 °F 99% 30.07 in 7.0 mi Calm Calm - N/A   Overcast
6:15 AM 68.9 °F - 68.4 °F 98% 30.07 in 7.0 mi Calm Calm - N/A   Overcast
6:35 AM 68.9 °F - 68.4 °F 98% 30.07 in 7.0 mi Calm Calm - N/A   Overcast
6:55 AM 68.9 °F - 68.2 °F 98% 30.07 in 7.0 mi Calm Calm - N/A   Overcast
7:15 AM 68.9 °F - 68.4 °F 98% 30.08 in 5.0 mi Calm Calm - N/A   Overcast
7:35 AM 69.4 °F - 68.7 °F 98% 30.08 in 7.0 mi Calm Calm - N/A   Overcast
7:55 AM 70.0 °F - 69.1 °F 97% 30.08 in 7.0 mi Calm Calm - N/A   Overcast
8:15 AM 70.3 °F - 68.9 °F 95% 30.09 in 7.0 mi Calm Calm - N/A   Overcast
8:35 AM 70.7 °F - 69.3 °F 95% 30.09 in 7.0 mi Calm Calm - N/A   Overcast
8:55 AM 70.7 °F - 69.6 °F 96% 30.10 in 7.0 mi Calm Calm - N/A   Overcast
9:15 AM 70.7 °F - 69.6 °F 96% 30.10 in 7.0 mi Calm Calm - N/A   Overcast
9:35 AM 71.2 °F - 69.6 °F 95% 30.10 in 7.0 mi Calm Calm - N/A   Overcast
9:55 AM 72.1 °F - 70.0 °F 93% 30.10 in 7.0 mi Calm Calm - N/A   Overcast
10:15 AM 73.6 °F - 70.2 °F 89% 30.10 in 10.0 mi Calm Calm - N/A   Overcast
10:35 AM 73.6 °F - 70.2 °F 89% 30.11 in 10.0 mi Calm Calm - N/A   Overcast
10:55 AM 74.1 °F - 70.3 °F 88% 30.11 in 10.0 mi Calm Calm - N/A   Overcast
11:15 AM 74.7 °F - 70.0 °F 85% 30.12 in 10.0 mi Calm Calm - N/A   Overcast
11:35 AM 75.4 °F - 70.0 °F 83% 30.12 in 10.0 mi Calm Calm - N/A   Overcast
11:55 AM 77.2 °F - 70.0 °F 78% 30.12 in 10.0 mi Calm Calm - N/A   Mostly Cloudy
12:15 PM 78.3 °F - 69.6 °F 75% 30.12 in 10.0 mi Calm Calm - N/A   Scattered Clouds
12:35 PM 79.9 °F - 71.1 °F 74% 30.12 in 10.0 mi WSW 3.5 mph - N/A   Scattered Clouds
12:55 PM 80.8 °F 84.7 °F 71.4 °F 73% 30.11 in 10.0 mi West 4.6 mph - N/A   Scattered Clouds
1:15 PM 79.0 °F - 71.8 °F 78% 30.10 in 10.0 mi West 6.9 mph - N/A   Mostly Cloudy
1:35 PM 79.3 °F - 72.3 °F 79% 30.10 in 10.0 mi WSW 6.9 mph - N/A   Mostly Cloudy
1:55 PM 79.9 °F - 71.6 °F 76% 30.09 in 10.0 mi WSW 6.9 mph - N/A   Clear
2:15 PM 79.7 °F - 71.6 °F 76% 30.09 in 10.0 mi SW 3.5 mph - N/A   Clear
2:35 PM 80.1 °F 83.7 °F 71.4 °F 75% 30.08 in 10.0 mi WSW 4.6 mph - N/A   Clear
2:55 PM 81.0 °F 85.2 °F 71.8 °F 74% 30.08 in 10.0 mi West 5.8 mph - N/A   Clear
3:15 PM 80.8 °F 84.4 °F 70.5 °F 71% 30.08 in 10.0 mi WSW 6.9 mph - N/A   Mostly Cloudy
3:35 PM 81.3 °F 85.4 °F 71.2 °F 71% 30.07 in 10.0 mi West 5.8 mph - N/A   Scattered Clouds
3:55 PM 81.5 °F 85.7 °F 71.4 °F 71% 30.06 in 10.0 mi West 5.8 mph - N/A   Clear
4:15 PM 81.1 °F 84.9 °F 70.5 °F 70% 30.06 in 10.0 mi WSW 4.6 mph - N/A   Clear
4:35 PM 80.8 °F 84.6 °F 71.1 °F 72% 30.06 in 10.0 mi West 5.8 mph - N/A   Clear
4:55 PM 80.8 °F 84.6 °F 70.9 °F 72% 30.06 in 10.0 mi WNW 5.8 mph - N/A   Clear
5:15 PM 80.6 °F 84.7 °F 72.1 °F 75% 30.06 in 10.0 mi West 4.6 mph - N/A   Scattered Clouds
5:35 PM 78.3 °F - 69.8 °F 75% 30.07 in 10.0 mi SSE 4.6 mph - N/A   Mostly Cloudy
5:55 PM 77.7 °F - 69.4 °F 76% 30.08 in 10.0 mi Calm Calm - N/A   Overcast
6:15 PM 75.2 °F - 70.2 °F 84% 30.09 in 10.0 mi West 9.2 mph - N/A   Mostly Cloudy
6:35 PM 72.5 °F - 70.7 °F 94% 30.08 in 7.0 mi Calm Calm - N/A Rain Rain
6:55 PM 72.5 °F - 70.9 °F 95% 30.08 in 10.0 mi Calm Calm - N/A   Scattered Clouds
7:15 PM 73.2 °F - 70.3 °F 91% 30.08 in 10.0 mi Calm Calm - N/A   Clear
7:35 PM 72.5 °F - 71.4 °F 96% 30.08 in 10.0 mi Calm Calm - N/A   Mostly Cloudy
7:55 PM 72.9 °F - 71.1 °F 94% 30.09 in 10.0 mi Calm Calm - N/A   Mostly Cloudy
8:15 PM 72.7 °F - 71.2 °F 95% 30.10 in 10.0 mi Calm Calm - N/A   Mostly Cloudy
8:35 PM 70.9 °F - 69.3 °F 95% 30.12 in 1.5 mi Calm Calm - N/A Rain Heavy Rain
8:55 PM 69.8 °F - 68.9 °F 97% 30.11 in 10.0 mi Calm Calm - N/A Rain Light Rain
9:15 PM 69.3 °F - 68.9 °F 99% 30.10 in 10.0 mi Calm Calm - N/A Rain Light Rain
9:35 PM 69.4 °F - 68.9 °F 98% 30.09 in 7.0 mi NE 3.5 mph - N/A Rain Rain
9:55 PM 69.1 °F - 68.9 °F 99% 30.09 in 5.0 mi Calm Calm - N/A Rain Rain
10:15 PM 69.1 °F - 68.9 °F 99% 30.10 in 7.0 mi Calm Calm - N/A Rain Light Rain
10:35 PM 68.9 °F - 68.9 °F 100% 30.10 in 7.0 mi Calm Calm - N/A Rain Light Rain
10:55 PM 68.9 °F - 68.2 °F 98% 30.11 in 10.0 mi Calm Calm - N/A   Light Drizzle
11:15 PM 68.4 °F - 67.8 °F 98% 30.11 in 10.0 mi Calm Calm - N/A   Scattered Clouds
11:35 PM 68.0 °F - 67.6 °F 99% 30.11 in 10.0 mi Calm Calm - N/A   Scattered Clouds
11:55 PM 68.0 °F - 68.0 °F 100% 30.11 in 10.0 mi Calm Calm - N/A   Mostly Cloudy